[[{"header":{"parameterUnit":"m.s-1","parameterCategory":1,"la1":30.2991,"la2":30.254,"lo1":-89.0895,"lo2":-89.0444,"dy":0.0017,"dx":0.0017,"nx":28,"ny":28,"refTime":"2023-07-29T09:00:00:Z","depth":0,"parameterNumber":2,"parameterNumberName":"U-component_of_WINDS"},"data":[0,0,0,0,0,0,0,0,0,0,0,0,0,0,0,0,0,0,0,0,0,0,0,0,0,0,0,0,0,0,0,0,0,0,0,0,0,0,0,0,0,0,0,0,0,0,0,0,0,0,0,0,0,0,0,0,0,0,2.6797,2.6797,0,2.6873,2.6874,2.6875,2.6809,2.6806,2.6803,2.6801,2.6881,2.6886,2.6891,0,0,0,0,0,0,0,0,0,0,0,0,0,2.6596,2.66,2.6797,2.6798,2.6798,2.6873,2.6874,2.6875,2.6809,2.6806,2.6802,2.6799,2.688,2.6885,2.6891,0,0,0,0,0,0,0,0,0,0,0,0,0,2.6679,2.6601,2.6796,2.6775,2.6773,2.6873,2.6874,2.6875,2.681,2.6806,2.6802,2.6798,2.6878,2.6885,2.6892,2.7017,0,0,2.6913,2.6916,0,0,0,0,0,0,0,0,2.6674,2.6686,2.6777,2.6776,2.6775,2.6827,2.6833,2.6923,2.6811,2.6796,2.68,2.6796,2.6867,2.6874,2.6898,2.7021,2.7025,2.6914,2.6918,2.6921,2.6923,0,0,0,0,0,0,0,2.6669,2.6683,2.6827,2.6778,2.6777,2.6762,2.6769,2.6849,2.6854,2.6797,2.6792,2.6802,2.6866,2.6891,2.6899,2.7026,2.6914,2.692,2.6924,2.6927,2.7255,2.7259,0,0,0,0,0,0,2.6665,2.6678,2.6824,2.6829,2.6713,2.6768,2.6777,2.6815,2.6852,2.6854,2.6806,2.6799,2.6881,2.6891,2.6902,2.705,2.6921,2.6928,2.6932,2.725,2.7256,2.7261,0,0,0,0,0,0,2.6661,2.6678,2.6821,2.6752,2.6769,2.6776,2.6819,2.6818,2.6844,2.6859,2.686,2.6831,2.6878,2.6892,2.6989,2.7052,2.6931,2.6937,2.7245,2.7252,2.7258,2.7349,0,0,0,0,0,0,2.6655,2.6677,2.6725,2.6754,2.6773,2.6907,2.6823,2.6823,2.6856,2.6848,2.6883,2.6885,2.6876,2.6978,2.6996,2.706,2.6943,2.7239,2.7248,2.7256,2.734,2.7358,2.7373,0,0,0,0,0,2.6648,2.6748,2.6727,2.6745,2.6833,2.691,2.6921,2.6909,2.6861,2.6909,2.6919,2.6884,2.7043,2.6989,2.7008,2.7075,2.7235,2.7246,2.7255,2.7333,2.7355,2.7373,0,0,0,0,0,0,2.6727,2.6752,2.6729,2.6841,2.6874,2.6899,2.6959,2.6932,2.698,2.697,2.6953,2.6962,2.7064,2.7079,2.7019,2.7198,2.7131,2.7146,2.7184,2.7205,2.7221,2.7215,2.6949,0,0,0,0,0,2.6757,2.6818,2.6836,2.6933,2.6951,2.6952,2.6986,2.6973,2.7007,2.7021,2.7037,2.7072,2.713,2.7168,2.7222,2.7342,2.7349,2.7398,2.7414,2.7428,2.744,2.7504,2.7526,2.7294,2.7294,2.7293,0,0,2.6821,2.6842,2.6881,2.695,2.6974,2.7037,2.6965,2.7035,2.7082,2.7032,2.7123,2.7137,2.7175,2.7284,2.7332,2.73,2.7506,2.7441,2.7451,2.7456,2.7517,2.7539,2.7558,2.7301,2.7299,2.7298,0,0,2.6969,2.6991,2.7074,2.7099,2.7136,2.7136,2.7156,2.7185,2.7192,2.7283,2.7247,2.7303,2.7403,2.743,2.7458,2.7616,2.7585,2.7634,2.7719,2.7782,2.78,2.7816,2.7872,2.7892,2.7646,2.7647,2.7647,0,2.7043,2.7136,2.712,2.7193,2.7224,2.718,2.7264,2.729,2.7343,2.7366,2.7328,2.7451,2.7474,2.7588,2.7626,2.765,2.7673,2.763,2.7799,2.7815,2.783,2.7882,2.7903,2.7652,2.7652,2.7651,2.7651,0,2.7226,2.7291,2.7354,2.7405,2.7443,2.7521,2.7517,2.7558,2.7542,2.7546,2.7639,2.7665,2.7723,2.7749,2.7735,2.7861,2.784,2.7801,2.7734,2.7858,2.7907,2.7927,2.766,2.7658,2.7657,2.7655,0,0,2.7426,2.7466,2.7489,2.7511,2.7548,2.7599,2.7675,2.773,2.7765,2.7804,2.7867,2.7952,2.7916,2.7947,2.7935,2.799,2.8113,2.7945,2.7945,2.7974,2.8253,2.8281,2.8305,2.8093,2.8097,2.81,2.825,0,2.7574,2.7705,2.7692,2.7817,2.7877,2.7836,2.7902,2.7933,2.7939,2.7991,2.7998,2.8058,2.8006,2.8024,2.8077,2.8087,2.8168,2.8076,2.8151,2.8154,2.8142,2.8331,2.8361,2.8502,2.8269,2.8272,2.8274,0,2.7765,2.7808,2.7939,2.7966,2.7991,2.805,2.81,2.815,2.8183,2.8184,2.8218,2.8197,2.8274,2.8205,2.831,2.8248,2.8278,2.8287,2.8292,2.8298,2.8221,2.8341,2.8546,2.8567,2.8305,2.8302,2.83,0,2.7897,2.7988,2.8078,2.8098,2.8132,2.8175,2.8191,2.822,2.8254,2.8298,2.832,2.8372,2.8401,2.8442,2.8435,2.8386,2.8543,2.8474,2.8545,2.8545,2.8579,2.8577,2.8791,2.8601,2.86,2.86,2.8599,0,2.8064,2.8145,2.8137,2.8192,2.8282,2.8266,2.8356,2.8367,2.8393,2.845,2.8419,2.8473,2.8461,2.8515,2.8511,2.8598,2.8612,2.8614,2.8612,2.8616,2.8616,2.8636,2.8625,2.8605,2.8604,2.8603,2.8602,0,2.8226,2.8224,2.8318,2.8343,2.8351,2.8416,2.8436,2.8488,2.8491,2.8564,2.858,2.8585,2.8647,2.8644,2.8715,2.8712,2.8819,2.8806,2.8807,2.8804,2.8875,2.8868,2.9109,2.9139,2.893,2.8932,2.8933,0,2.8332,2.8393,2.8424,2.8459,2.8478,2.8535,2.8569,2.8556,2.8593,2.8635,2.8682,2.8741,2.8787,2.8888,2.8898,2.8952,2.8939,2.9019,2.8947,2.8949,2.8939,2.8935,2.8941,2.9034,2.9036,2.9038,2.9039,0,2.8521,2.8517,2.8566,2.8616,2.8657,2.8696,2.8731,2.8762,2.8753,2.8796,2.8858,2.8893,2.8964,2.9023,2.9074,2.9091,2.9064,2.9062,2.9081,2.9086,2.9084,2.9085,2.8845,2.9057,2.9055,2.9054,2.9053,2.9052,2.8658,2.871,2.8739,2.8795,2.882,2.8854,2.8903,2.8912,2.8963,2.9019,2.9009,2.9078,2.911,2.9175,2.9197,2.9252,2.9223,2.9251,2.9258,2.9265,2.9272,2.9076,2.9261,2.9261,2.926,2.926,2.9259,0,2.8844,2.8861,2.8912,2.8962,2.9006,2.8976,2.9013,2.9052,2.9114,2.9145,2.919,2.9261,2.9317,2.9332,2.9386,2.9427,2.9416,2.9441,2.9438,2.9442,2.9295,2.9273,2.9449,2.9449,2.9449,2.9449,2.9449,2.9449,2.8946,2.9032,2.9032,2.913,2.9146,2.9213,2.9236,2.9267,2.9291,2.9372,2.9418,2.9426,2.9451,2.9506,2.9557,2.9559,2.958,2.9611,2.9609,2.9472,2.9453,2.9434,2.9413,2.9616,2.9616,2.9751,2.9752,2.9753]},{"header":{"parameterUnit":"m.s-1","parameterCategory":1,"la1":30.2991,"la2":30.254,"lo1":-89.0895,"lo2":-89.0444,"dy":0.0017,"dx":0.0017,"nx":28,"ny":28,"refTime":"2023-07-29T09:00:00:Z","depth":0,"parameterNumber":3,"parameterNumberName":"V-component_of_WINDS"},"data":[0,0,0,0,0,0,0,0,0,0,0,0,0,0,0,0,0,0,0,0,0,0,0,0,0,0,0,0,0,0,0,0,0,0,0,0,0,0,0,0,0,0,0,0,0,0,0,0,0,0,0,0,0,0,0,0,0,0,-0.8645,-0.8644,0,-0.8629,-0.8629,-0.8628,-0.8621,-0.8621,-0.8621,-0.8622,-0.8605,-0.8605,-0.8604,0,0,0,0,0,0,0,0,0,0,0,0,0,-0.8668,-0.8667,-0.8645,-0.8644,-0.8644,-0.8629,-0.8629,-0.8628,-0.8621,-0.8621,-0.8621,-0.8622,-0.8605,-0.8605,-0.8604,0,0,0,0,0,0,0,0,0,0,0,0,0,-0.8655,-0.8667,-0.8645,-0.8639,-0.8638,-0.8629,-0.8629,-0.8628,-0.8621,-0.8621,-0.8622,-0.8622,-0.8606,-0.8605,-0.8604,-0.8599,0,0,-0.8602,-0.8602,0,0,0,0,0,0,0,0,-0.8656,-0.8655,-0.864,-0.8639,-0.8638,-0.8627,-0.8631,-0.8619,-0.8621,-0.8628,-0.8622,-0.8622,-0.8612,-0.8611,-0.8608,-0.8599,-0.8598,-0.8602,-0.8602,-0.8601,-0.8601,0,0,0,0,0,0,0,-0.8657,-0.8655,-0.8638,-0.864,-0.8639,-0.8637,-0.8635,-0.8628,-0.862,-0.8627,-0.8627,-0.8625,-0.8612,-0.8609,-0.8608,-0.8598,-0.8602,-0.8602,-0.8601,-0.8601,-0.8582,-0.8582,0,0,0,0,0,0,-0.8659,-0.8656,-0.8639,-0.8638,-0.8648,-0.8636,-0.8634,-0.8631,-0.862,-0.8619,-0.8625,-0.8625,-0.861,-0.8609,-0.8607,-0.86,-0.8601,-0.8601,-0.86,-0.8583,-0.8582,-0.8582,0,0,0,0,0,0,-0.8659,-0.8657,-0.8639,-0.8647,-0.8644,-0.8636,-0.8632,-0.863,-0.8627,-0.8618,-0.8617,-0.8623,-0.861,-0.8608,-0.8601,-0.86,-0.86,-0.86,-0.8583,-0.8583,-0.8582,-0.8587,0,0,0,0,0,0,-0.866,-0.8658,-0.8656,-0.8647,-0.8644,-0.8634,-0.8632,-0.863,-0.8626,-0.8626,-0.8616,-0.8615,-0.861,-0.8602,-0.8601,-0.8599,-0.8599,-0.8583,-0.8583,-0.8582,-0.8587,-0.8587,-0.8587,0,0,0,0,0,-0.8661,-0.8658,-0.8656,-0.8654,-0.8642,-0.8634,-0.8632,-0.8627,-0.8626,-0.8624,-0.8618,-0.8615,-0.86,-0.8602,-0.86,-0.8598,-0.8583,-0.8583,-0.8582,-0.8587,-0.8587,-0.8587,0,0,0,0,0,0,-0.8667,-0.8657,-0.8654,-0.8648,-0.8642,-0.8633,-0.863,-0.8627,-0.8621,-0.8621,-0.8614,-0.8612,-0.8605,-0.8601,-0.8603,-0.8592,-0.8591,-0.8591,-0.8595,-0.8595,-0.8595,-0.8596,-0.8599,0,0,0,0,0,-0.8668,-0.8663,-0.8654,-0.8649,-0.8646,-0.8639,-0.8635,-0.8631,-0.8624,-0.8622,-0.8616,-0.8609,-0.8603,-0.8599,-0.8592,-0.8586,-0.8583,-0.8583,-0.8584,-0.8584,-0.8583,-0.8579,-0.8578,-0.8582,-0.8582,-0.8582,0,0,-0.867,-0.8663,-0.866,-0.865,-0.8645,-0.8639,-0.8637,-0.8631,-0.8627,-0.8621,-0.8614,-0.8609,-0.8601,-0.8594,-0.8591,-0.859,-0.8582,-0.8583,-0.8584,-0.8583,-0.8578,-0.8578,-0.8578,-0.8582,-0.8582,-0.8582,0,0,-0.8669,-0.8664,-0.8659,-0.8654,-0.8646,-0.8641,-0.864,-0.8631,-0.8627,-0.862,-0.8615,-0.861,-0.8599,-0.8593,-0.8589,-0.8586,-0.8583,-0.8584,-0.8584,-0.858,-0.858,-0.8579,-0.8577,-0.8577,-0.8584,-0.8584,-0.8584,0,-0.8672,-0.8663,-0.8657,-0.8652,-0.8647,-0.8642,-0.8637,-0.8632,-0.8622,-0.8619,-0.8618,-0.8604,-0.8599,-0.859,-0.8589,-0.8586,-0.8584,-0.8585,-0.858,-0.858,-0.8579,-0.8578,-0.8577,-0.8584,-0.8584,-0.8584,-0.8584,0,-0.8667,-0.8661,-0.8658,-0.8649,-0.8644,-0.8639,-0.8631,-0.8627,-0.8623,-0.8618,-0.861,-0.8603,-0.8595,-0.8593,-0.8589,-0.8583,-0.8583,-0.8582,-0.8581,-0.8579,-0.8577,-0.8577,-0.8584,-0.8584,-0.8584,-0.8584,0,0,-0.8671,-0.8657,-0.8656,-0.8651,-0.8642,-0.8637,-0.8631,-0.8623,-0.8619,-0.8612,-0.8607,-0.8598,-0.8596,-0.8591,-0.8587,-0.8583,-0.858,-0.8582,-0.8581,-0.8581,-0.8572,-0.8573,-0.8572,-0.8578,-0.8577,-0.8577,-0.8572,0,-0.8669,-0.8658,-0.8652,-0.8643,-0.8638,-0.8632,-0.8626,-0.862,-0.8615,-0.8608,-0.8603,-0.8596,-0.8594,-0.8591,-0.8587,-0.8581,-0.8578,-0.8581,-0.8572,-0.8572,-0.8574,-0.8571,-0.8572,-0.8568,-0.8572,-0.8571,-0.8571,0,-0.8665,-0.8658,-0.8649,-0.8639,-0.8636,-0.8632,-0.8623,-0.8618,-0.861,-0.8606,-0.86,-0.8596,-0.8589,-0.8589,-0.8579,-0.8581,-0.8577,-0.8573,-0.8573,-0.8571,-0.8571,-0.8569,-0.8567,-0.8566,-0.857,-0.857,-0.857,0,-0.8668,-0.8656,-0.8649,-0.8645,-0.8634,-0.863,-0.8625,-0.8617,-0.8613,-0.8605,-0.8602,-0.8594,-0.8589,-0.8583,-0.8576,-0.8577,-0.8567,-0.8566,-0.8563,-0.8563,-0.8561,-0.8561,-0.8557,-0.8559,-0.8559,-0.8559,-0.8559,0,-0.8666,-0.866,-0.865,-0.8646,-0.8639,-0.8632,-0.8626,-0.862,-0.8613,-0.8607,-0.8602,-0.8596,-0.8588,-0.8581,-0.8576,-0.8568,-0.8566,-0.8562,-0.8561,-0.8563,-0.8563,-0.856,-0.8559,-0.8559,-0.8559,-0.8559,-0.8559,0,-0.8668,-0.8661,-0.8653,-0.8642,-0.8639,-0.8635,-0.8626,-0.8621,-0.8615,-0.8608,-0.8606,-0.8597,-0.8588,-0.8581,-0.857,-0.8567,-0.8558,-0.8557,-0.8561,-0.856,-0.8557,-0.8557,-0.8551,-0.8549,-0.8552,-0.8552,-0.8552,0,-0.8667,-0.8663,-0.8652,-0.8647,-0.8642,-0.8635,-0.863,-0.8623,-0.8618,-0.8607,-0.8604,-0.8595,-0.8588,-0.8575,-0.8567,-0.8559,-0.8557,-0.8555,-0.8555,-0.8557,-0.8556,-0.8556,-0.8555,-0.8555,-0.8555,-0.8555,-0.8555,0,-0.8666,-0.8662,-0.8655,-0.8647,-0.8641,-0.8634,-0.8627,-0.8623,-0.8614,-0.8609,-0.86,-0.8594,-0.8583,-0.8574,-0.8565,-0.8559,-0.8555,-0.8555,-0.8553,-0.8555,-0.8557,-0.8555,-0.856,-0.8555,-0.8555,-0.8555,-0.8555,-0.8555,-0.8666,-0.8662,-0.8653,-0.8645,-0.8639,-0.8632,-0.8626,-0.862,-0.8613,-0.8603,-0.8599,-0.859,-0.8581,-0.8568,-0.8562,-0.8555,-0.8554,-0.8552,-0.8552,-0.8551,-0.8551,-0.8559,-0.8553,-0.8553,-0.8553,-0.8553,-0.8553,0,-0.8664,-0.8658,-0.8651,-0.8641,-0.8634,-0.8631,-0.8623,-0.8617,-0.861,-0.8602,-0.8594,-0.8584,-0.8575,-0.8567,-0.8557,-0.8553,-0.8551,-0.8551,-0.8551,-0.8549,-0.8553,-0.8555,-0.8553,-0.8553,-0.8553,-0.8553,-0.8553,-0.8553,-0.8663,-0.8655,-0.865,-0.8638,-0.8632,-0.8623,-0.8619,-0.8612,-0.8606,-0.8594,-0.8587,-0.8581,-0.8573,-0.8563,-0.8554,-0.8552,-0.8548,-0.8549,-0.8546,-0.8549,-0.8549,-0.8549,-0.8551,-0.8548,-0.8548,-0.8543,-0.8543,-0.8543]}]]